GW6344 Weather Reports


time (UTC)temp
F
wind
direction
speed
knots
gust
knots
rain 1hr
in
rain 24hr
in
rain mn
in
humidity
%
barometer
mb
20260510164542 78 323 0.0 0.0 0.00 0.56 0.00 77 1017.2
20260510163020 77 57 0.0 0.0 0.00 0.56 0.00 76 1017.2
20260510161515 76 72 0.0 0.0 0.00 0.56 0.00 81 1017.2
20260510160014 74 295 0.0 0.0 0.00 0.61 0.00 80 1017.4
20260510154510 74 84 0.0 0.0 0.00 0.67 0.00 82 1017.6
20260510153006 74 70 0.0 0.0 0.00 0.72 0.00 84 1017.5
20260510151506 73 27 0.0 0.0 0.00 0.74 0.00 86 1017.3
20260510150024 72 81 0.0 0.0 0.00 0.76 0.00 87 1017.3
20260510144526 70 70 0.0 0.0 0.00 0.80 0.00 88 1017.3
20260510143022 69 79 0.0 0.0 0.00 0.84 0.00 93 1017.4
20260510141520 68 63 0.0 0.0 0.00 0.91 0.00 94 1017.2
20260510140018 68 70 0.0 0.0 0.00 0.98 0.00 95 1017.3
20260510134528 67 76 0.0 0.0 0.00 1.07 0.00 95 1017.2
20260510133026 66 73 0.0 0.0 0.00 1.11 0.00 96 1017.1
20260510131527 66 75 0.0 0.0 0.00 1.15 0.00 96 1016.9
20260510130030 66 66 0.0 0.0 0.00 1.20 0.00 96 1016.7
20260510124538 65 65 0.0 0.0 0.00 1.30 0.00 96 1016.5
20260510123024 65 65 0.0 0.0 0.00 1.46 0.00 95 1016.4
20260510121519 65 76 0.0 0.0 0.00 2.05 0.00 95 1016.0
20260510114517 64 95 0.0 0.0 0.00 2.54 0.00 95 1015.7
20260510113020 64 36 0.0 0.0 0.00 2.56 0.00 95 1015.4
20260510111513 64 278 0.0 0.0 0.00 2.56 0.00 95 1014.8
20260510110011 64 80 0.0 0.0 0.00 2.56 0.00 95 1014.3
20260510104512 64 90 0.0 0.0 0.00 2.56 0.00 95 1014.1
20260510103032 65 328 0.0 0.0 0.00 2.56 0.00 95 1013.9
20260510101522 65 326 0.0 0.0 0.00 2.56 0.00 95 1013.7
20260510100024 65 78 0.0 0.0 0.00 2.56 0.00 95 1013.6
20260510094522 65 78 0.0 0.0 0.00 2.56 0.00 95 1013.5
20260510093016 65 70 0.0 0.0 0.00 2.56 0.00 95 1013.6
20260510091537 65 70 0.0 0.0 0.00 2.57 0.00 95 1013.7
20260510090014 65 9 0.0 0.0 0.00 2.57 0.00 95 1013.8
20260510084508 65 292 0.0 0.0 0.00 2.57 0.00 95 1013.8
20260510083028 65 305 0.0 0.0 0.00 2.59 0.00 95 1013.6
20260510081536 65 248 0.0 0.0 0.00 2.60 0.00 95 1013.5
20260510080024 66 217 0.0 0.0 0.00 2.61 0.00 95 1013.5
20260510074522 66 217 0.0 0.0 0.00 2.61 0.00 95 1013.4
20260510073024 66 217 0.0 0.0 0.00 2.62 0.00 95 1013.2
20260510071516 66 217 0.0 0.0 0.00 2.62 0.00 95 1012.8
20260510070021 66 216 0.0 0.0 0.00 2.62 0.00 95 1012.9
20260510064536 66 216 0.0 0.0 0.00 2.62 0.00 95 1013.2
20260510063038 66 216 0.0 0.0 0.00 2.62 0.00 95 1013.2
20260510061542 66 216 0.0 0.0 0.00 2.62 0.00 95 1013.3
20260510060035 66 221 0.0 0.0 0.00 2.62 0.00 95 1013.4
20260510054510 66 221 0.0 0.0 0.00 2.65 0.00 95 1013.4
20260510053009 66 221 0.0 0.0 0.00 2.67 0.00 95 1013.3
20260510051506 66 221 0.0 0.0 0.00 2.71 0.00 95 1013.6
20260510050006 66 229 0.0 0.0 0.00 2.73 0.00 95 1013.5
20260510044509 66 229 0.0 0.0 0.00 2.74 2.73 95 1013.4
20260510043008 66 229 0.0 0.0 0.00 2.74 2.73 95 1013.2
20260510041506 66 287 0.0 0.0 0.00 2.74 2.73 95 1013.4
20260510040010 66 287 0.0 0.0 0.00 2.74 2.73 95 1013.1
20260510034510 66 108 0.0 0.0 0.00 2.74 2.73 95 1013.6
20260510033013 66 73 0.0 0.0 0.00 2.74 2.73 95 1013.9
20260510031510 66 73 0.0 0.0 0.00 2.74 2.73 95 1013.8
20260510030012 66 76 0.0 0.0 0.00 2.74 2.73 95 1014.1
20260510024510 66 76 0.0 0.0 0.00 2.74 2.73 95 1013.8
20260510023011 66 178 0.0 0.0 0.00 2.74 2.73 95 1013.4
20260510021513 67 158 0.0 0.0 0.00 2.74 2.73 95 1013.2
20260510020012 67 173 0.0 0.0 0.01 2.74 2.73 95 1013.5
20260510014516 67 108 0.0 0.0 0.02 2.74 2.73 95 1013.0
20260510013019 67 75 0.0 0.9 0.03 2.74 2.73 95 1013.1
20260510011519 67 342 0.0 1.7 0.03 2.74 2.73 95 1013.1
20260510010013 67 59 0.0 0.9 0.03 2.74 2.72 95 1011.7
20260510004513 67 167 0.0 0.0 0.02 2.73 2.71 95 1012.2
20260510003014 66 250 0.9 3.5 0.02 2.72 2.70 95 1012.3
20260510001513 67 73 0.0 0.0 0.04 2.73 2.70 95 1011.9
20260510000012 66 72 0.0 0.0 0.04 2.73 2.69 95 1012.8
20260509234528 67 218 0.0 0.0 0.05 2.73 2.69 95 1012.8
20260509233030 66 108 0.0 0.0 0.06 2.73 2.68 95 1012.4
20260509231516 66 117 0.0 0.0 0.07 2.72 2.66 95 1012.3
20260509230016 66 128 0.0 0.0 0.08 2.71 2.65 95 1012.4
20260509224518 66 79 0.0 0.0 0.08 2.74 2.64 95 1012.3
20260509223018 66 80 0.0 0.0 0.06 2.79 2.62 95 1012.5
20260509221513 66 81 0.0 0.0 0.05 2.80 2.59 95 1012.2
20260509220020 66 86 0.0 0.0 0.03 2.81 2.57 95 1012.2
20260509214516 66 82 0.0 1.7 0.04 2.82 2.56 95 1011.6
20260509213016 66 240 0.0 0.0 0.06 2.84 2.56 95 1011.7
20260509211520 66 99 0.0 0.0 0.06 2.87 2.54 95 1011.4
20260509210024 66 82 0.0 0.0 0.12 2.95 2.54 95 1011.0
20260509204520 66 101 0.0 0.0 0.14 2.99 2.52 95 1011.6
20260509203024 66 335 0.0 0.0 0.18 3.02 2.50 95 1011.3
20260509201518 65 97 0.0 0.0 0.21 3.04 2.48 95 1011.7
20260509200016 65 250 0.0 0.0 0.20 3.09 2.42 95 1013.1
20260509194510 65 88 0.0 0.0 0.19 3.16 2.38 95 1012.8
20260509193007 66 264 0.0 0.0 0.13 3.27 2.32 95 1012.5
20260509191505 65 229 0.0 0.0 0.08 3.54 2.27 95 1013.1
20260509190007 65 136 0.0 0.0 0.03 3.81 2.22 95 1013.2
20260509184532 65 78 0.0 0.0 0.01 4.02 2.19 95 1013.0
20260509183030 65 140 0.0 0.0 0.01 4.37 2.19 95 1012.8
20260509181520 65 58 0.0 0.0 0.01 4.42 2.19 95 1012.7
20260509180019 65 99 0.0 0.0 0.01 4.51 2.19 95 1012.7
20260509174512 65 340 0.0 0.0 0.01 4.85 2.18 95 1012.5
20260509173016 65 87 0.0 0.9 0.01 5.04 2.18 95 1012.8
20260509171519 65 89 0.0 0.9 0.01 5.04 2.18 95 1012.8
20260509170008 65 67 0.0 3.5 0.06 5.04 2.18 95 1012.9